Location: Newark
(45.5000°N, 11.4167°E)
Time: 22:44:13
(UTC+00:00)

A-11 Canister half - Pass Details

Date: 19 August 2019
Orbit: 1514 x 1686 km, 47.2° (Epoch: 15 September)

Event Time Altitude Azimuth Distance (km) Brightness Sun altitude
Rises 15:07:08 0° 167° (SSE) 4,660 11.6 31.8°
Reaches altitude 10° 15:13:23 10° 136° (SE) 3,715 10.8 30.7°
Maximum altitude 15:15:46 11° 121° (ESE) 3,638 10.7 30.3°
Drops below altitude 10° 15:18:10 10° 106° (ESE) 3,750 10.7 29.9°
Sets 15:24:32 0° 75° (ENE) 4,787 11.0 28.8°
